Location: Balsareny
(41.8670°N, 1.8830°E)
Time: 06:04:26
(UTC+02:00)

Tiangong - Pass Details

Date: 25 June 2021
Orbit: 373 x 386 km, 41.5° (Epoch: 28 July)

Event Time Altitude Azimuth Distance (km) Brightness Sun altitude
Exits shadow 04:30:55 36° 251° (WSW) 617 1.6 -15.5°
Maximum altitude 04:32:02 76° 172° (S) 392 0.9 -15.3°
Drops below altitude 10° 04:35:10 10° 86° (E) 1,392 4.5 -15.0°
Sets 04:37:15 0° 85° (E) 2,248 5.6 -14.8°
